Location: *
(50.5492°N, 7.7469°E)
Time: 18:53:56
(UTC+00:00)

Cosmos 921 Rocket - Pass Details

Date: 21 October 2019
Orbit: 573 x 631 km, 75.8° (Epoch: 22 November)

Event Time Altitude Azimuth Distance (km) Brightness Sun altitude
Rises 17:45:45 0° 220° (SW) 2,908 7.1 -13.4°
Reaches altitude 10° 17:48:07 10° 227° (SW) 2,000 6.4 -13.8°
Maximum altitude 17:52:21 41° 298° (WNW) 912 4.4 -14.4°
Drops below altitude 10° 17:56:34 10° 9° (N) 1,986 5.6 -15.1°
Sets 17:58:54 0° 17° (NNE) 2,886 6.3 -15.5°
